Weather reports worldwide

Advertisment
Gelbelsee, Germany (10777): temperature & dewpoint: 16.01.2019 04:00:00 - 22.01.2019 04:00:00 (CET)Gelbelsee, Germany (10777): temperature 5cm & temperature -5cm: 16.01.2019 04:00:00 - 22.01.2019 04:00:00 (CET)Gelbelsee, Germany (10777): temperature -20cm & temperature -100cm: 16.01.2019 04:00:00 - 22.01.2019 04:00:00 (CET)Gelbelsee, Germany (10777): wind speed & gusts: 16.01.2019 04:00:00 - 22.01.2019 04:00:00 (CET)Gelbelsee, Germany (10777): wind direction: 16.01.2019 04:00:00 - 22.01.2019 04:00:00 (CET)Gelbelsee, Germany (10777): reduced air pressure: 16.01.2019 04:00:00 - 22.01.2019 04:00:00 (CET)Gelbelsee, Germany (10777): visibility: 16.01.2019 04:00:00 - 22.01.2019 04:00:00 (CET)Gelbelsee, Germany (10777): sunshine duration: 16.01.2019 04:00:00 - 22.01.2019 04:00:00 (CET)Gelbelsee, Germany (10777): precipitation: 16.01.2019 04:00:00 - 22.01.2019 04:00:00 (CET)
Date & Time tt [°C] td [°C] tt 5cm [°C] tt -5cm [°C] tt -20cm [°C] tt -100cm [°C] ff [km/h] ff [kn] fx [km/h] fx [kn] dd ppp [hPa] vv [km] sd [min] rr [mm]
22.01.2019 04:00:00 -5,5 -6,5 -5,5 -3,2 -0,1 3,7 4 2 5 3 NW 1018,8 4,7 0 0,0
22.01.2019 03:00:00 -6,0 -6,7 -6,1 -3,6 -0,1 3,7 4 2 8 4 W 1019,6 3,5 0 0,0
22.01.2019 02:00:00 -7,3 -8,0 -9,5 -4,1 -0,1 3,7 3 2 5 3 WSW 1020,5 4,2 0 0,0
22.01.2019 01:00:00 -6,9 -7,8 -9,8 -3,9 -0,1 3,7 4 2 6 4 WSW 1021,0 6 0 0,0
22.01.2019 00:00:00 -7,2 -8,1 -11,3 -3,8 0,0 3,7 3 2 6 3 NW 1021,5 6 0 0,0
21.01.2019 23:00:00 -6,6 -7,5 -11,0 -3,6 0,0 3,7 0 0 5 3 N 1021,3 5 0 0,0
21.01.2019 22:00:00 -6,2 -7,1 -10,9 -3,3 0,0 3,7 4 2 4 2 NW 1021,7 8 0 0,0
21.01.2019 21:00:00 -5,1 -6,0 -9,4 -3,0 0,0 3,7 3 1 4 2 WSW 1021,3 8 0 0,0
21.01.2019 20:00:00 -5,0 -6,2 -9,4 -2,6 0,0 3,7 2 1 4 2 NW 1021,5 11 0 0,0
21.01.2019 19:00:00 -4,3 -6,3 -9,0 -2,2 0,0 3,7 3 2 7 4 NW 1021,4 14 0 0,0
21.01.2019 18:00:00 -3,5 -6,5 -8,6 -1,6 0,0 3,7 2 1 4 2 NE 1021,2 23 0 0,0
21.01.2019 17:00:00 -2,1 -6,6 -6,0 -1,1 0,0 3,7 4 2 6 3 E 1021,0 23 40 0,0
21.01.2019 16:00:00 -1,3 -6,2 -2,8 -0,9 0,0 3,7 4 2 9 5 E 1020,8 27 60 0,0
21.01.2019 15:00:00 -1,4 -6,9 -0,9 -0,8 0,0 3,7 6 3 14 8 E 1021,0 31 60 0,0
21.01.2019 14:00:00 -1,7 -6,4 0,2 -0,9 0,1 3,8 9 5 15 8 E 1021,6 27 60 0,0
21.01.2019 13:00:00 -2,0 -6,7 -1,6 -1,1 0,1 3,8 11 6 20 11 SE 1022,0 25 59 0,0
21.01.2019 12:00:00 -2,9 -7,2 -1,4 -1,4 0,1 3,8 15 8 22 12 ESE 1022,8 24 60 0,0
21.01.2019 11:00:00 -3,3 -7,2 -1,9 -2,0 0,1 3,8 9 5 14 8 E 1023,2 21 60 0,0
21.01.2019 10:00:00 -5,1 -8,0 -4,2 -2,9 0,1 3,8 5 3 8 4 E 1023,5 15 60 0,0
21.01.2019 09:00:00 -7,2 -8,8 -6,8 -3,5 0,1 3,8 4 2 5 3 N 1023,9 11 29 0,0
21.01.2019 08:00:00 -7,9 -9,1 -11,0 -3,5 0,1 3,8 5 3 8 5 NE 1023,6 10 0 0,0
21.01.2019 07:00:00 -7,3 -8,7 -9,5 -3,4 0,2 3,8 5 3 7 4 NE 1023,2 12 0 0,0
21.01.2019 06:00:00 -7,3 -8,7 -9,3 -3,3 0,2 3,8 5 3 9 5 ENE 1023,0 12 0 0,0
21.01.2019 05:00:00 -7,2 -8,7 -8,5 -3,2 0,2 3,8 6 4 10 5 ENE 1022,9 11 0 0,0
21.01.2019 04:00:00 -7,4 -8,5 -8,5 -3,0 0,2 3,8 7 4 10 5 NE 1023,1 7 0 0,0
21.01.2019 03:00:00 -7,1 -7,9 -8,5 -2,7 0,2 3,8 5 3 11 6 ENE 1023,0 4,3 0 0,0
21.01.2019 02:00:00 -6,5 -7,1 -6,5 -2,5 0,2 3,8 8 5 18 10 E 1022,8 2,1 0 0,0
21.01.2019 01:00:00 -7,0 -7,2 -7,0 -2,7 0,2 3,8 11 6 21 11 E 1022,9 0,3 0 0,0
21.01.2019 00:00:00 -6,3 -7,9 -8,0 -2,5 0,3 3,8 6 3 14 7 E 1022,5 12 0 0,0
20.01.2019 23:00:00 -5,7 -7,6 -6,7 -2,2 0,3 3,8 7 4 11 6 NE 1021,9 16 0 0,0
20.01.2019 22:00:00 -5,6 -7,5 -6,3 -2,2 0,3 3,8 7 4 12 7 NNE 1021,4 16 0 0,0
20.01.2019 21:00:00 -5,2 -7,2 -6,5 -1,8 0,3 3,8 8 5 13 7 NNE 1020,9 16 0 0,0
20.01.2019 20:00:00 -5,0 -7,2 -5,1 -1,7 0,3 3,8 5 3 14 7 NE 1020,4 17 0 0,0
20.01.2019 19:00:00 -4,8 -7,0 -5,8 -1,4 0,3 3,8 8 5 17 9 ENE 1019,9 16 0 0,0
20.01.2019 18:00:00 -4,1 -6,1 -4,1 -1,1 0,3 3,8 8 4 12 6 E 1019,1 10 0 0,0
20.01.2019 17:00:00 -3,8 -6,0 -3,8 -0,9 0,3 3,8 7 4 10 5 SE 1018,6 13 0 0,0
20.01.2019 16:00:00 -3,0 -6,0 -3,0 -0,7 0,3 3,8 7 4 10 5 SE 1017,9 16 9 0,0
20.01.2019 15:00:00 -2,7 -6,4 -2,4 -0,8 0,3 3,8 6 3 11 6 ESE 1017,3 19 49 0,0
20.01.2019 14:00:00 -3,4 -6,2 -3,0 -0,9 0,3 3,8 4 2 8 4 SW 1017,5 14 47 0,0
20.01.2019 13:00:00 -5,1 -6,6 -4,2 -1,1 0,3 3,8 6 3 13 7 E 1018,2 8 0 0,0
20.01.2019 12:00:00 -5,7 -7,0 -4,5 -1,4 0,4 3,8 5 3 14 8 E 1018,2 6 0 0,0
20.01.2019 11:00:00 -6,2 -7,2 -5,0 -1,7 0,4 3,8 11 6 16 8 ENE 1018,4 4,9 0 0,0
20.01.2019 10:00:00 -6,3 -7,1 -5,5 -2,0 0,4 3,8 10 5 16 9 E 1017,8 4,5 0 0,0
20.01.2019 09:00:00 -6,2 -7,1 -5,8 -2,3 0,4 3,8 11 6 18 10 E 1017,3 6 0 0,0
20.01.2019 08:00:00 -6,2 -7,6 -6,4 -2,6 0,4 3,8 8 4 12 6 E 1016,6 14 0 0,0
20.01.2019 07:00:00 -7,5 -8,9 -9,1 -2,9 0,5 3,8 4 2 6 3 E 1016,7 20 0 0,0
20.01.2019 06:00:00 -7,6 -8,9 -10,2 -2,8 0,5 3,8 3 2 8 4 E 1016,6 20 0 0,0
20.01.2019 05:00:00 -7,1 -8,6 -9,4 -2,6 0,5 3,8 5 3 9 5 E 1016,5 22 0 0,0
20.01.2019 04:00:00 -6,4 -8,0 -8,7 -2,5 0,5 3,8 5 3 11 6 ESE 1016,4 20 0 0,0
20.01.2019 03:00:00 -6,3 -8,0 -8,3 -2,4 0,5 3,8 7 4 11 6 ESE 1016,6 19 0 0,0
20.01.2019 02:00:00 -6,5 -8,2 -8,9 -2,3 0,6 3,8 6 4 10 5 E 1016,8 21 0 0,0
20.01.2019 01:00:00 -5,6 -7,8 -9,0 -2,2 0,6 3,8 4 2 11 6 ESE 1016,6 28 0 0,0
20.01.2019 00:00:00 -4,9 -7,6 -6,9 -2,0 0,6 3,8 8 4 11 6 SE 1016,6 40 0 0,0
19.01.2019 23:00:00 -4,8 -7,4 -8,0 -1,8 0,6 3,8 4 2 7 4 ESE 1016,6 26 0 0,0
19.01.2019 22:00:00 -5,1 -7,5 -9,6 -1,7 0,6 3,8 3 2 8 4 E 1016,7 35 0 0,0
19.01.2019 21:00:00 -4,3 -8,0 -8,1 -1,5 0,6 3,8 4 2 11 6 ESE 1016,6 44 0 0,0
19.01.2019 20:00:00 -3,5 -8,9 -6,3 -1,3 0,7 3,8 6 4 10 5 ESE 1016,4 49 0 0,0
19.01.2019 19:00:00 -2,9 -9,1 -7,0 -1,1 0,7 3,8 5 3 14 7 ESE 1016,4 20 0 0,0
19.01.2019 18:00:00 -2,7 -8,4 -5,6 -0,8 0,7 3,8 7 4 14 8 E 1016,4 59 0 0,0
19.01.2019 17:00:00 -1,6 -8,8 -3,3 -0,5 0,7 3,8 11 6 19 10 ESE 1016,3 50 36 0,0
19.01.2019 16:00:00 -1,0 -8,3 -2,1 -0,4 0,7 3,8 9 5 20 11 SE 1016,4 74 60 0,0
19.01.2019 15:00:00 -0,7 -9,5 -0,8 -0,3 0,7 3,8 12 6 23 13 SE 1016,8 57 60 0,0
19.01.2019 14:00:00 -0,8 -10,0 0,0 -0,3 0,7 3,8 16 9 26 14 SE 1017,2 51 60 0,0
19.01.2019 13:00:00 -0,8 -9,9 -0,6 -0,3 0,7 3,8 17 9 28 15 ESE 1017,8 69 59 0,0
19.01.2019 12:00:00 -1,3 -10,2 0,1 -0,4 0,7 3,8 14 8 24 13 ESE 1018,7 75 60 0,0
19.01.2019 11:00:00 -1,8 -8,6 -0,8 -0,6 0,7 3,8 14 8 26 14 ESE 1019,3 53 60 0,0
19.01.2019 10:00:00 -3,4 -8,0 -2,9 -1,0 0,8 3,8 8 4 17 9 E 1019,7 50 60 0,0
19.01.2019 09:00:00 -4,5 -8,5 -5,5 -1,2 0,8 3,8 9 5 14 8 E 1020,1 58 30 0,0
19.01.2019 08:00:00 -5,6 -8,0 -7,6 -1,1 0,8 3,8 9 5 13 7 E 1020,2 41 0 0,0
19.01.2019 07:00:00 -5,6 -7,1 -7,0 -0,9 0,8 3,8 8 5 12 6 NE 1020,4 21 0 0,0
19.01.2019 06:00:00 -4,7 -6,6 -6,8 -0,8 0,8 3,8 8 4 16 9 E 1020,5 31 0 0,0
19.01.2019 05:00:00 -4,4 -6,1 -6,3 -0,6 0,8 3,8 10 5 21 12 E 1020,4 26 0 0,0
19.01.2019 04:00:00 -4,0 -6,4 -5,8 -0,4 0,8 3,8 13 7 22 12 E 1020,5 41 0 0,0
19.01.2019 03:00:00 -3,6 -6,4 -5,2 -0,2 0,9 3,8 13 7 24 13 E 1020,7 46 0 0,0
19.01.2019 02:00:00 -3,8 -6,4 -5,2 -0,1 0,9 3,8 10 5 15 8 ENE 1020,8 42 0 0,0
19.01.2019 01:00:00 -3,8 -6,3 -5,5 0,0 0,9 3,8 9 5 14 7 E 1021,5 44 0 0,0
19.01.2019 00:00:00 -3,4 -6,5 -6,2 0,0 0,9 3,8 7 4 10 5 E 1021,9 48 0 0,0
18.01.2019 23:00:00 -2,9 -6,2 -5,4 0,1 0,9 3,8 7 4 10 5 E 1021,8 44 0 0,0
18.01.2019 22:00:00 -2,8 -5,8 -5,0 0,1 0,9 3,8 6 3 8 5 NE 1021,8 48 0 0,0
18.01.2019 21:00:00 -2,9 -5,5 -5,7 0,1 0,9 3,8 0 0 10 5 N 1022,1 40 0 0,0
18.01.2019 20:00:00 -2,8 -5,0 -7,3 0,1 0,9 3,8 3 1 5 3 NE 1022,4 39 0 0,0
18.01.2019 19:00:00 -2,6 -4,8 -6,5 0,1 0,9 3,8 4 2 6 3 N 1022,1 39 0 0,0
18.01.2019 18:00:00 -2,0 -5,0 -5,8 0,1 0,9 3,8 3 2 5 3 ENE 1022,1 44 0 0,0
18.01.2019 17:00:00 -1,3 -5,1 -5,8 0,1 0,9 3,8 0 0 6 4 N 1021,7 56 25 0,0
18.01.2019 16:00:00 0,0 -5,3 -1,4 0,2 0,9 3,8 2 1 6 3 ENE 1021,2 49 25 0,0
18.01.2019 15:00:00 0,1 -4,6 0,5 0,2 0,9 3,8 4 2 10 6 ENE 1021,0 49 15 0,0
18.01.2019 14:00:00 -0,3 -4,8 0,4 0,2 0,9 3,8 6 4 12 6 NE 1020,9 65 5 0,0
18.01.2019 13:00:00 0,0 -4,7 1,0 0,1 0,9 3,8 5 3 16 9 NW 1021,0 56 7 0,0
18.01.2019 12:00:00 -0,5 -3,9 0,0 0,1 0,9 3,8 9 5 18 10 NW 1021,2 51 5 0,0
18.01.2019 11:00:00 -0,8 -3,8 -0,8 0,1 0,9 3,8 11 6 26 14 WNW 1021,2 44 0 0,0
18.01.2019 10:00:00 -0,9 -3,4 -1,0 0,1 0,9 3,8 16 9 25 13 W 1020,5 32 0 0,0
18.01.2019 09:00:00 -0,9 -3,6 -1,3 0,1 0,9 3,8 11 6 28 15 W 1019,6 41 3 0,0
18.01.2019 08:00:00 -1,1 -3,6 -1,9 0,1 0,9 3,8 12 7 27 14 W 1018,6 34 0 0,0
18.01.2019 07:00:00 -1,1 -3,5 -2,8 0,1 0,9 3,8 13 7 26 14 WNW 1017,5 39 0 0,0
18.01.2019 06:00:00 -0,5 -3,4 -1,1 0,1 0,9 3,8 14 7 37 20 WNW 1016,3 42 0 0,0
18.01.2019 05:00:00 -0,3 -3,5 -0,8 0,1 0,9 3,9 20 11 36 19 WNW 1015,5 54 0 0,0
18.01.2019 04:00:00 -0,4 -3,4 -1,0 0,1 0,9 3,9 15 8 31 17 W 1014,7 50 0 0,0
18.01.2019 03:00:00 0,0 -2,5 -1,0 0,1 0,9 3,9 13 7 27 15 WNW 1014,3 52 0 0,0
18.01.2019 02:00:00 0,0 -1,2 -0,4 0,2 0,9 3,9 14 8 32 18 WNW 1013,5 43 0 0,0
18.01.2019 01:00:00 0,9 -1,3 0,1 0,2 0,9 3,9 16 8 31 17 W 1012,9 50 0 0,0
18.01.2019 00:00:00 1,2 -1,0 0,3 0,2 0,9 3,9 18 10 34 18 W 1012,3 51 0 0,0
17.01.2019 23:00:00 1,3 -0,5 0,3 0,2 0,9 3,9 15 8 32 17 W 1011,6 38 0 0,1
17.01.2019 22:00:00 1,5 0,2 0,7 0,3 0,9 3,9 13 7 42 23 WNW 1011,0 25 0 0,0
17.01.2019 21:00:00 1,8 0,5 0,7 0,3 0,9 3,9 20 11 44 24 W 1010,2 62 0 0,0
17.01.2019 20:00:00 2,9 0,0 1,2 0,3 0,9 3,9 16 9 55 30 WSW 1009,0 66 0 0,0
17.01.2019 19:00:00 3,9 -0,6 2,3 0,4 0,9 3,9 24 13 45 24 W 1008,3 72 0 0,0
17.01.2019 18:00:00 3,7 0,5 2,5 0,4 1,0 3,9 23 12 40 21 WSW 1007,7 75 0 0,0
17.01.2019 17:00:00 4,5 0,7 3,0 0,4 1,0 3,9 18 10 35 19 WSW 1007,1 75 0 0,0
17.01.2019 16:00:00 4,7 1,7 3,1 0,4 0,9 3,9 13 7 36 19 W 1006,9 75 0 0,0
17.01.2019 15:00:00 5,4 1,2 4,0 0,5 0,9 3,9 18 10 39 21 WSW 1006,0 75 0 0,0
17.01.2019 14:00:00 5,4 1,6 4,0 0,5 0,9 3,9 16 9 35 19 WSW 1005,9 40 0 0,0
17.01.2019 13:00:00 5,7 1,3 4,4 0,5 0,9 3,9 18 10 37 20 WSW 1006,3 46 16 0,0
17.01.2019 12:00:00 5,0 0,9 3,9 0,3 0,9 3,9 19 10 36 20 WSW 1006,9 46 0 0,0
17.01.2019 11:00:00 4,0 0,4 2,6 0,2 0,9 3,9 22 12 40 22 SW 1007,7 48 0 0,0
17.01.2019 10:00:00 3,6 0,4 2,2 0,2 0,9 3,9 15 8 32 17 SW 1007,6 36 0 0,0
17.01.2019 09:00:00 3,0 -0,1 1,7 0,2 0,9 3,9 16 8 31 17 SW 1008,1 37 3 0,0
17.01.2019 08:00:00 2,6 -0,4 1,3 0,2 0,9 3,9 18 10 39 21 WSW 1008,3 37 0 0,0
17.01.2019 07:00:00 2,5 -0,8 0,5 0,2 0,9 3,9 21 11 34 19 SW 1008,6 39 0 0,0
17.01.2019 06:00:00 2,0 -1,6 0,2 0,2 0,9 3,9 16 9 29 16 SW 1008,8 34 0 0,0
17.01.2019 05:00:00 2,4 -1,8 0,9 0,2 0,9 3,9 16 9 31 17 WSW 1009,0 42 0 0,0
17.01.2019 04:00:00 2,6 -2,2 1,1 0,1 0,9 3,9 16 9 32 18 SW 1009,1 42 0 0,0
17.01.2019 03:00:00 1,8 -2,7 -0,8 0,1 0,9 3,9 10 5 24 13 SW 1009,3 47 0 0,0
17.01.2019 02:00:00 1,6 -2,7 -0,7 0,1 0,9 3,9 12 7 24 13 SW 1009,2 43 0 0,0
17.01.2019 01:00:00 1,6 -2,5 -0,5 0,1 0,9 3,9 15 8 25 14 SW 1009,4 45 0 0,0
17.01.2019 00:00:00 1,3 -2,6 -0,7 0,1 0,9 3,9 17 9 29 16 SSW 1010,1 41 0 0,0
16.01.2019 23:00:00 1,5 -2,5 -0,8 0,1 0,9 3,9 16 8 26 14 SSW 1010,6 42 0 0,0
16.01.2019 22:00:00 1,8 -2,4 -0,2 0,1 0,9 3,9 16 8 26 14 SW 1010,8 47 0 0,0
16.01.2019 21:00:00 1,8 -2,3 -0,4 0,2 0,9 3,9 14 8 24 13 SSW 1011,0 40 0 0,0
16.01.2019 20:00:00 2,1 -2,1 -0,4 0,2 0,9 3,9 12 7 21 11 SSW 1011,4 50 0 0,0
16.01.2019 19:00:00 1,7 -1,8 -1,0 0,2 0,9 3,9 7 4 10 6 SSW 1011,9 41 0 0,0
16.01.2019 18:00:00 2,0 -1,5 -1,1 0,2 0,9 3,9 5 3 11 6 S 1012,2 40 0 0,0
16.01.2019 17:00:00 2,3 -1,3 -0,1 0,2 0,9 3,9 6 4 15 8 SSW 1012,5 40 0 0,0
16.01.2019 16:00:00 3,0 -1,6 0,8 0,3 0,9 3,9 10 6 22 12 SW 1013,0 47 37 0,0
16.01.2019 15:00:00 3,1 -1,3 1,5 0,3 0,9 3,9 9 5 21 12 SSW 1013,2 37 37 0,0
16.01.2019 14:00:00 3,4 -1,3 3,0 0,3 0,9 3,9 14 7 27 15 SSW 1013,9 37 60 0,0
16.01.2019 13:00:00 2,4 -1,7 2,1 0,3 0,9 3,9 13 7 23 12 S 1015,0 31 59 0,0
16.01.2019 12:00:00 2,3 -1,9 2,6 0,3 0,9 3,9 11 6 22 12 SSW 1016,3 36 60 0,0
16.01.2019 11:00:00 1,7 -2,0 2,4 0,3 0,9 3,9 9 5 16 9 SSW 1017,2 34 60 0,0
16.01.2019 10:00:00 1,0 -1,7 1,4 0,3 0,9 3,9 8 4 15 8 SW 1017,8 27 15 0,0
16.01.2019 09:00:00 0,8 -1,4 0,2 0,2 0,9 3,9 8 4 16 9 SW 1018,0 28 0 0,0
16.01.2019 08:00:00 1,5 -1,3 0,6 0,2 0,9 3,9 8 4 18 10 WSW 1017,8 50 0 0,0
16.01.2019 07:00:00 1,8 -1,4 0,9 0,2 0,9 3,9 13 7 22 12 WSW 1018,0 41 0 0,0
16.01.2019 06:00:00 1,9 -1,2 0,9 0,2 0,9 3,9 13 7 23 12 WSW 1018,0 48 0 0,0
16.01.2019 05:00:00 2,1 -1,1 0,9 0,2 0,9 3,9 16 9 24 13 WSW 1018,3 51 0 0,0
16.01.2019 04:00:00 2,2 -1,0 1,1 0,2 0,9 3,9 16 8 27 15 WSW 1018,7 48 0 0,0

tt = temperature
td = dewpoint
tt 5cm = temperature 5cm
tt -5cm = temperature -5cm
tt -20cm = temperature -20cm
tt -100cm = temperature -100cm
ff = wind speed
fx = gusts
dd = wind direction
ppp = reduced air pressure
vv = visibility
sd = sunshine duration
rr = precipitation

Next stations